Date String (YYYY-MM-DD hh:mm:ss) UTC,Instrument flags,Ambient pressure (hPa),Sample flow (lpm),Bypass flow (lpm),Sample temperature (°C),Ambient temperature (°C),ASC tube jacket temperature (°C),LED temperature (°C),Box temperature (°C),Sample RH (%),Span deviation,Mass concentration (μg/m³),Mass concentration (μg/m³),Mass concentration (μg/m³)
DateTimeUTC,F1_M11,P_M11,Q1_M11,Q2_M11,T1_M11,T2_M11,T3_M11,T4_M11,T5_M11,U1_M11,ZSPAN_M11,X0_M11,X2_M11,X1_M11
2022-12-11 18:00:00,,0819.9,5.02,0.00,24.9,23.8,00.0,33.5,26.8,09.2,0000.0,0014.43,0006.08,0005.13
2022-12-11 18:01:00,,0819.9,4.99,0.00,24.9,23.9,00.0,33.6,26.8,09.2,0000.0,0013.87,0006.03,0005.07
2022-12-11 18:02:00,,0819.8,4.99,0.00,24.9,23.9,00.0,33.6,26.8,09.2,0000.0,0013.03,0005.97,0005.02
2022-12-11 18:03:00,,0819.8,5.01,0.00,24.9,23.9,00.0,33.6,26.8,09.2,0000.0,0012.56,0005.92,0004.98
2022-12-11 18:04:00,,0819.9,5.02,0.00,25.0,24.0,00.0,33.6,26.9,08.8,0000.0,0012.66,0005.80,0004.90
2022-12-11 18:05:00,,0819.8,4.98,0.00,25.0,24.0,00.0,33.6,26.9,09.4,0000.0,0012.55,0005.74,0004.86
2022-12-11 18:06:00,,0819.9,4.99,0.00,25.0,24.0,00.0,33.7,26.9,09.6,0000.0,0012.58,0005.71,0004.88
2022-12-11 18:07:00,,0819.8,5.01,0.00,25.0,24.0,00.0,33.7,26.9,09.5,0000.0,0012.72,0005.71,0004.88
2022-12-11 18:08:00,,0819.8,5.02,0.00,25.0,24.1,00.0,33.7,27.0,09.5,0000.0,0012.69,0005.68,0004.87
2022-12-11 18:09:00,,0819.8,4.99,0.00,25.1,24.1,00.0,33.7,27.0,10.0,0000.0,0013.25,0005.69,0004.90
2022-12-11 18:10:00,,0819.8,4.98,0.00,25.1,24.1,00.0,33.8,27.0,09.9,0000.0,0013.03,0005.71,0004.97
2022-12-11 18:11:00,,0819.7,5.00,0.00,25.1,24.1,00.0,33.8,27.0,09.9,0000.0,0012.50,0005.80,0005.05
2022-12-11 18:12:00,,0819.7,5.02,0.00,25.1,24.1,00.0,33.8,27.1,10.0,0000.0,0012.22,0005.87,0005.15
2022-12-11 18:13:00,,0819.7,5.01,0.00,25.2,24.2,00.0,33.8,27.1,09.4,0000.0,0012.34,0005.91,0005.22
2022-12-11 18:14:00,,0819.7,4.99,0.00,25.2,24.2,00.0,33.8,27.1,09.2,0000.0,0012.17,0005.93,0005.24
2022-12-11 18:15:00,,0819.7,4.99,0.00,25.2,24.2,00.0,33.9,27.1,09.6,0000.0,0012.31,0005.97,0005.32
2022-12-11 18:16:00,,0819.7,5.00,0.00,25.2,24.2,00.0,33.9,27.1,09.8,0000.0,0012.72,0006.09,0005.42
2022-12-11 18:17:00,,0819.7,5.02,0.00,25.2,24.2,00.0,33.9,27.2,09.8,0000.0,0012.76,0006.19,0005.51
2022-12-11 18:18:00,,0819.7,5.02,0.00,25.3,24.3,00.0,33.9,27.2,09.4,0000.0,0012.76,0006.26,0005.56
2022-12-11 18:19:00,,0819.6,4.99,0.00,25.3,24.3,00.0,33.9,27.2,09.3,0000.0,0013.20,0006.35,0005.61
2022-12-11 18:20:00,,0819.5,4.98,0.00,25.3,24.3,00.0,34.0,27.2,09.6,0000.0,0013.15,0006.44,0005.66
2022-12-11 18:21:00,,0819.6,5.01,0.00,25.3,24.3,00.0,34.0,27.3,09.4,0000.0,0013.04,0006.48,0005.68
2022-12-11 18:22:00,,0819.5,5.02,0.00,25.3,24.3,00.0,34.0,27.3,09.5,0000.0,0013.02,0006.50,0005.70
2022-12-11 18:23:00,,0819.5,4.99,0.00,25.4,24.3,00.0,34.0,27.3,09.7,0000.0,0013.36,0006.59,0005.72
2022-12-11 18:24:00,,0819.4,4.99,0.00,25.4,24.4,00.0,34.0,27.3,09.5,0000.0,0014.46,0006.66,0005.74
2022-12-11 18:25:00,,0819.4,5.00,0.00,25.4,24.4,00.0,34.1,27.3,09.3,0000.0,0014.59,0006.71,0005.80
2022-12-11 18:26:00,,0819.4,5.02,0.00,25.4,24.4,00.0,34.1,27.3,09.0,0000.0,0014.51,0006.75,0005.82
2022-12-11 18:27:00,,0819.3,5.00,0.00,25.4,24.4,00.0,34.1,27.4,08.8,0000.0,0013.86,0006.71,0005.78
2022-12-11 18:28:00,,0819.3,4.99,0.00,25.5,24.5,00.0,34.1,27.4,08.8,0000.0,0014.08,0006.61,0005.68
2022-12-11 18:29:00,,0819.3,4.99,0.00,25.5,24.5,00.0,34.1,27.4,08.4,0000.0,0015.09,0006.42,0005.56
2022-12-11 18:30:00,,0819.4,5.01,0.00,25.5,24.5,00.0,34.2,27.4,08.3,0000.0,0014.98,0006.26,0005.45
2022-12-11 18:31:00,,0819.4,5.02,0.00,25.5,24.6,00.0,34.2,27.5,08.3,0000.0,0014.37,0006.03,0005.30
2022-12-11 18:32:00,,0819.4,4.99,0.00,25.6,24.6,00.0,34.2,27.5,08.8,0000.0,0014.11,0005.89,0005.18
2022-12-11 18:33:00,,0819.4,4.99,0.00,25.6,24.6,00.0,34.2,27.5,09.1,0000.0,0014.79,0005.87,0005.15
2022-12-11 18:34:00,,0819.3,4.99,0.00,25.6,24.6,00.0,34.3,27.5,09.3,0000.0,0014.60,0005.82,0005.12
2022-12-11 18:35:00,,0819.2,5.00,0.00,25.6,24.7,00.0,34.3,27.5,08.8,0000.0,0013.64,0005.79,0005.07
2022-12-11 18:36:00,,0819.2,5.01,0.00,25.6,24.7,00.0,34.3,27.6,09.0,0000.0,0013.56,0005.78,0005.05
2022-12-11 18:37:00,,0819.3,5.02,0.00,25.7,24.7,00.0,34.3,27.6,09.1,0000.0,0014.23,0005.79,0005.07
2022-12-11 18:38:00,,0819.3,5.01,0.00,25.7,24.7,00.0,34.3,27.6,09.2,0000.0,0014.65,0005.89,0005.13
2022-12-11 18:39:00,,0819.2,5.00,0.00,25.7,24.7,00.0,34.4,27.6,09.1,0000.0,0014.85,0006.05,0005.23
2022-12-11 18:40:00,,0819.2,4.99,0.00,25.7,24.7,00.0,34.4,27.6,09.1,0000.0,0013.71,0006.22,0005.36
2022-12-11 18:41:00,,0819.2,4.99,0.00,25.7,24.7,00.0,34.4,27.6,09.2,0000.0,0013.67,0006.38,0005.48
2022-12-11 18:42:00,,0819.2,5.01,0.00,25.7,24.7,00.0,34.4,27.6,09.3,0000.0,0013.97,0006.57,0005.64
2022-12-11 18:43:00,,0819.2,5.02,0.00,25.8,24.7,00.0,34.4,27.7,09.2,0000.0,0013.74,0006.69,0005.75
2022-12-11 18:44:00,,0819.1,5.00,0.00,25.8,24.7,00.0,34.4,27.7,09.1,0000.0,0013.36,0006.74,0005.81
2022-12-11 18:45:00,,0819.1,4.98,0.00,25.8,24.8,00.0,34.5,27.7,09.0,0000.0,0013.39,0006.73,0005.84
2022-12-11 18:46:00,,0819.0,4.99,0.00,25.8,24.8,00.0,34.5,27.7,08.9,0000.0,0013.47,0006.77,0005.90
2022-12-11 18:47:00,,0819.0,5.02,0.00,25.8,24.8,00.0,34.5,27.8,08.9,0000.0,0013.85,0006.83,0005.95
2022-12-11 18:48:00,,0819.0,5.02,0.00,25.9,24.8,00.0,34.5,27.8,09.0,0000.0,0013.29,0006.94,0006.00
2022-12-11 18:49:00,,0819.0,4.98,0.00,25.9,24.8,00.0,34.5,27.8,09.0,0000.0,0013.06,0006.96,0006.02
2022-12-11 18:50:00,,0819.0,4.98,0.00,25.9,24.9,00.0,34.6,27.8,09.1,0000.0,0012.55,0006.92,0006.04
2022-12-11 18:51:00,,0819.0,5.00,0.00,25.9,24.9,00.0,34.6,27.8,09.0,0000.0,0012.58,0006.92,0006.05
2022-12-11 18:52:00,,0819.0,5.01,0.00,25.9,24.9,00.0,34.6,27.8,09.0,0000.0,0012.79,0006.91,0006.07
2022-12-11 18:53:00,,0819.0,5.01,0.00,26.0,24.9,00.0,34.6,27.9,09.1,0000.0,0012.69,0006.91,0006.07
2022-12-11 18:54:00,,0819.0,4.98,0.00,26.0,24.9,00.0,34.6,27.9,09.1,0000.0,0012.73,0006.94,0006.10
2022-12-11 18:55:00,,0819.0,4.99,0.00,26.0,24.9,00.0,34.6,27.9,09.0,0000.0,0012.66,0006.98,0006.13
2022-12-11 18:56:00,,0818.9,5.01,0.00,26.0,25.0,00.0,34.7,27.9,09.0,0000.0,0012.81,0007.00,0006.14
2022-12-11 18:57:00,,0818.9,5.01,0.00,26.0,25.0,00.0,34.7,27.9,08.8,0000.0,0012.91,0006.95,0006.13
2022-12-11 18:58:00,,0818.9,5.00,0.00,26.1,25.0,00.0,34.7,28.0,08.8,0000.0,0013.40,0006.93,0006.12
2022-12-11 18:59:00,,0818.9,4.99,0.00,26.1,25.0,00.0,34.7,28.0,08.9,0000.0,0013.07,0006.88,0006.09
